This is the latest recevied weather packets stored in our database for station/object KC1OEK-13. If no packets are shown the sender has not sent any weather packets the latest 10 day(s).
| Time | Temp. | Humidity | Pressure | Rain* | Wind** | Luminosity | Snow |
|---|---|---|---|---|---|---|---|
| 1777609410 | 6.11° C | 82% | 1011.7 hPa | 0 mm | - | 0 W/m² | - |
| 1777609108 | 6.67° C | 82% | 1011.6 hPa | 0 mm | - | 0 W/m² | - |
| 1777608804 | 6.67° C | 80% | 1011.6 hPa | 0 mm | - | 0 W/m² | - |
| 1777608501 | 7.22° C | 77% | 1011.4 hPa | 0 mm | - | 0 W/m² | - |
| 1777608199 | 6.67° C | 80% | 1011.5 hPa | 0 mm | - | 0 W/m² | - |
| 1777607896 | 7.22° C | 77% | 1011.4 hPa | 0 mm | - | 0 W/m² | - |
| 1777607591 | 7.22° C | 77% | 1011.2 hPa | 0 mm | - | 0 W/m² | - |
| 1777607289 | 7.22° C | 78% | 1011.2 hPa | 0 mm | - | 0 W/m² | - |
| 1777606984 | 7.22° C | 78% | 1011 hPa | 0 mm | - | 0 W/m² | - |
| 1777606680 | 7.78° C | 78% | 1011.1 hPa | 0 mm | - | 0 W/m² | - |
| 1777606375 | 7.78° C | 76% | 1010.9 hPa | 0 mm | - | 0 W/m² | - |
| 1777606070 | 7.78° C | 76% | 1010.9 hPa | 0 mm | - | 0 W/m² | - |
| 1777605766 | 7.22° C | 80% | 1010.9 hPa | 0 mm | - | 0 W/m² | - |
| 1777605465 | 7.78° C | 79% | 1011 hPa | 0 mm | - | 0 W/m² | - |
| 1777605163 | 7.78° C | 77% | 1010.9 hPa | 0 mm | - | 0 W/m² | - |
| 1777604857 | 7.78° C | 79% | 1010.8 hPa | 0 mm | - | 0 W/m² | - |
| 1777604554 | 7.22° C | 82% | 1011 hPa | 0 mm | - | 0 W/m² | - |
| 1777604250 | 6.67° C | 91% | 1010.8 hPa | 0 mm | - | 0 W/m² | - |
| 1777603945 | 6.67° C | 91% | 1010.9 hPa | 0 mm | - | 0 W/m² | - |
| 1777603643 | 6.67° C | 92% | 1010.7 hPa | 0 mm | - | 0 W/m² | - |
| 1777603339 | 6.67° C | 91% | 1010.7 hPa | 0 mm | - | 0 W/m² | - |
| 1777603035 | 7.22° C | 92% | 1010.9 hPa | 0 mm | - | 0 W/m² | - |
| 1777602730 | 6.67° C | 94% | 1010.8 hPa | 0 mm | - | 0 W/m² | - |
| 1777602425 | 6.67° C | 95% | 1010.7 hPa | 0 mm | - | 0 W/m² | - |
| 1777602122 | 6.67° C | 95% | 1010.9 hPa | 0 mm | - | 0 W/m² | - |
* Rain latest hour (hover to see other rain measurements)
** Current wind speed in m/s (hover to see current wind gust speed)